Wind_Gust
29 28 24 23 22 21 21 19 20 25 24 22 20 20 18 18 18 17 17 17 18 17 17 17 17 15 15 15 15 14 14 13 13 13 13 13 14 14 14 16 15 14 13 14 14 14 16 16 16 15 16 14 13 16 17 16 14 15 14 10 13 12 14 14 18 18 12 11 12 17 19 18 20 19 19 17 21 20 15 15 22 19 20 19 21
29 26 23 20 20 21 17 12 20 23 22 21 20 21 20 19 17 18 16 17 17 18 18 16 15 15 14 15 14 14 14 14 14 14 13 13 13 13 14 15 14 14 12 13 13 15 14 16 16 15 15 16 16 18 19 17 17 19 15 15 17 17 15 21 22 19 17 12 13 14 20 17 18 19 18 17 19 18 22 19 22 21 21 20 22
25 23 20 17 19 17 16 20 26 24 24 21 20 21 21 19 19 18 17 17 16 17 16 15 15 14 13 12 13 13 13 13 12 12 12 14 15 14 13 13 13 13 14 14 16 14 14 15 16 16 16 16 15 18 15 16 19 19 15 15 17 17 19 14 24 20 18 16 14 16 18 18 16 21 20 20 20 21 22 21 21 21 19 19 20
21 20 17 18 15 17 28 28 25 24 24 22 21 20 21 21 19 18 19 18 19 15 15 15 14 14 14 13 12 12 12 10 12 13 13 13 14 15 13 13 12 12 13 14 16 15 14 14 16 17 16 16 16 17 17 16 18 16 16 13 15 16 12 12 15 18 20 20 16 20 20 17 19 17 21 21 21 20 20 21 21 20 19 19 20
19 21 18 15 19 24 22 23 26 24 23 24 22 22 20 20 19 19 18 18 18 17 17 16 15 15 14 14 13 12 12 13 12 12 11 10 12 12 13 13 13 14 15 17 11 15 15 14 15 17 17 18 19 18 17 14 18 17 16 18 15 16 11 12 11 13 19 18 18 18 21 23 19 18 19 21 22 20 19 19 20 20 18 17 11
28 24 25 24 16 15 13 16 21 23 23 22 22 22 21 19 19 17 18 18 17 16 17 17 17 17 16 14 13 12 13 11 12 13 13 11 11 12 14 12 13 15 13 12 13 13 14 17 15 16 17 18 17 17 17 16 16 15 17 18 18 17 14 14 13 11 14 14 18 20 14 18 20 18 17 18 18 20 19 19 17 16 15 15 16
33 32 29 26 20 24 23 19 12 15 20 20 20 21 20 19 20 19 18 17 17 16 16 16 14 15 15 14 14 12 13 13 11 9 12 13 10 11 10 11 11 13 14 13 14 12 13 14 14 17 16 17 17 18 18 16 15 13 15 13 19 19 16 15 16 16 14 15 16 16 17 16 13 15 19 17 17 17 16 16 16 18 17 15 15
32 31 30 27 26 26 21 19 14 14 18 19 20 21 21 20 20 18 17 17 16 16 16 15 14 14 14 13 12 12 10 11 12 12 12 12 13 11 11 10 11 11 11 12 10 10 10 11 11 12 14 15 15 16 15 16 15 15 14 14 16 13 17 15 15 16 18 17 17 15 16 16 17 17 18 17 19 19 20 19 18 17 16 18 18
26 26 28 28 23 21 18 14 15 16 19 21 20 21 21 19 18 17 16 16 14 15 15 14 14 13 13 11 11 10 12 19 19 18 17 10 13 11 12 11 11 12 12 12 10 11 10 10 10 10 16 12 13 11 9 8 13 17 14 12 14 14 13 15 16 16 16 16 18 18 18 19 19 17 18 17 18 19 17 17 18 17 17 16 18
26 24 26 22 21 20 21 15 14 15 17 19 20 19 19 17 17 17 16 15 14 14 14 13 14 14 15 14 13 12 18 14 14 13 11 16 12 15 11 12 12 13 12 13 12 11 11 10 13 12 11 10 10 9 9 9 10 11 13 14 16 16 15 16 17 18 18 19 18 18 20 20 19 17 18 17 16 14 15 16 18 19 19 18 17
25 27 23 23 23 20 21 19 17 16 16 19 17 19 17 16 16 16 15 15 14 14 14 14 13 14 14 14 13 16 15 15 15 12 13 14 15 14 11 9 9 12 12 13 13 13 11 13 12 10 8 3 6 4 4 7 9 11 12 11 9 10 14 18 18 16 18 19 18 19 19 18 17 16 17 19 19 18 18 17 19 19 19 19 23
22 23 25 25 25 24 22 20 18 17 16 17 18 19 19 18 16 13 13 12 12 13 13 14 13 12 14 16 16 15 15 11 11 10 10 10 8 14 10 9 8 9 10 12 13 13 13 12 11 12 11 11 10 13 7 5 5 5 7 10 12 13 5 8 13 17 17 18 17 17 17 17 17 16 18 17 18 18 19 19 18 19 20 22 22
24 24 24 25 23 23 20 19 19 17 16 16 17 18 19 18 18 17 15 11 8 9 10 12 15 16 14 16 16 16 15 11 9 8 7 8 8 10 14 11 9 10 8 10 12 13 14 14 12 11 13 8 8 12 11 13 7 5 2 4 7 8 13 10 6 10 14 17 17 18 18 17 17 18 15 17 14 16 17 20 19 21 22 23 22
26 24 24 22 22 21 21 21 21 18 15 16 17 18 18 16 14 13 14 15 16 16 14 12 12 13 16 16 16 16 15 12 12 9 7 7 6 7 14 8 8 9 8 9 7 8 7 8 11 11 10 9 9 11 10 11 12 11 10 12 14 12 9 11 13 11 8 14 16 17 15 14 17 15 14 13 16 19 19 19 17 20 21 23 19
27 26 25 21 21 22 21 22 19 18 16 16 17 17 15 14 14 10 11 12 12 13 12 12 13 15 15 15 16 16 15 12 13 13 11 10 9 7 9 6 10 8 7 6 7 6 8 9 8 9 9 10 18 15 12 12 13 13 14 16 16 17 16 16 15 15 15 14 16 18 17 18 16 15 15 14 14 17 17 18 17 18 20 14 8
27 26 26 23 21 21 21 21 20 19 16 14 17 16 14 13 11 10 12 12 12 11 12 12 14 15 15 15 15 16 16 15 15 15 15 15 14 12 9 9 9 9 9 7 9 10 9 8 10 10 11 18 16 17 16 16 13 15 17 17 18 18 19 11 6 7 13 16 16 16 15 9 7 12 12 12 15 15 16 18 18 20 23 25 26
24 24 25 23 21 20 18 18 18 17 15 16 15 14 13 13 11 9 11 10 11 10 11 12 12 14 14 15 14 15 16 15 15 16 16 18 13 13 9 11 10 9 8 8 9 8 8 11 11 10 15 17 14 14 15 11 13 16 18 18 19 19 19 17 13 14 15 14 13 15 14 15 14 11 10 9 9 12 18 21 23 22 26 27 25
22 20 19 17 16 16 17 18 16 14 15 15 13 13 11 11 11 9 11 11 11 11 11 14 12 11 12 13 14 15 14 13 15 16 17 19 16 15 10 9 9 8 11 10 9 12 15 16 12 14 16 16 12 15 16 14 12 15 16 20 21 22 21 21 15 15 17 16 15 14 13 13 14 14 13 13 12 8 22 29 25 24 25 25 27
19 18 17 15 15 16 17 18 18 15 14 14 12 12 12 11 11 12 12 10 10 10 9 11 12 12 12 11 7 12 14 12 14 15 17 17 18 16 15 8 7 7 8 9 9 12 18 17 19 19 16 13 13 13 14 13 13 14 17 19 21 23 20 16 15 10 14 17 15 15 17 15 18 18 17 17 14 10 20 25 26 27 27 27 27
15 15 16 16 16 17 17 17 16 15 15 13 13 13 11 12 11 10 9 9 8 6 6 9 10 11 10 10 12 13 12 13 14 13 15 16 17 19 14 14 13 10 9 11 8 9 19 19 17 14 13 12 12 12 11 11 13 15 16 16 18 22 19 19 16 14 14 17 18 19 21 20 20 20 22 19 17 18 19 21 20 21 24 28 25
17 17 17 18 18 17 16 17 16 14 13 12 11 12 12 11 10 9 9 8 7 7 8 9 10 9 9 9 11 11 11 11 15 12 12 15 17 16 13 16 16 15 14 12 13 13 13 22 17 11 9 9 9 8 7 7 6 13 14 15 15 15 15 20 19 9 17 19 22 22 23 23 25 24 23 23 20 17 17 17 19 17 21 25 28
16 16 18 19 18 17 16 14 14 13 12 12 12 12 10 9 8 8 8 9 8 7 6 7 8 9 9 8 9 10 11 10 11 11 10 11 13 17 15 15 16 15 14 13 13 11 14 14 16 11 10 11 10 9 8 8 8 12 14 10 15 15 18 17 19 20 21 22 26 25 26 23 20 26 26 27 26 17 15 17 18 16 17 21 23
17 17 18 18 17 17 15 14 14 13 13 11 11 10 9 11 9 8 8 10 10 10 9 9 10 10 10 9 9 10 12 13 7 11 7 8 8 9 10 11 11 14 12 12 13 15 15 15 13 14 15 15 12 13 11 10 9 12 11 12 12 11 10 15 15 18 20 21 22 25 25 28 25 23 20 19 19 18 15 14 13 14 14 8 8
14 14 14 14 14 14 15 15 14 12 11 10 10 9 8 8 9 7 6 6 8 8 9 7 8 9 10 10 9 9 10 14 7 7 9 6 6 3 3 3 6 9 10 10 11 13 12 15 13 12 13 16 14 13 14 11 14 12 14 15 13 9 14 15 15 17 18 20 22 23 24 23 26 23 19 18 19 17 13 12 10 13 11 6 7
15 14 14 13 12 13 13 13 12 10 9 9 9 10 9 7 9 8 7 8 8 9 8 9 8 9 9 10 10 10 10 16 15 10 9 9 8 7 4 3 5 5 11 10 9 10 8 7 8 8 9 11 14 14 12 13 16 15 14 15 11 13 13 14 15 17 19 21 22 23 24 24 25 26 24 23 19 17 15 13 9 10 10 15 12
15 15 15 15 14 13 10 11 12 11 9 10 10 10 9 10 9 9 9 9 9 9 9 9 8 9 8 9 9 9 10 12 14 14 9 9 7 8 8 10 10 12 12 11 8 7 7 6 9 13 14 15 17 14 14 16 12 16 17 14 13 17 19 21 21 21 23 24 24 24 24 23 23 22 21 18 18 18 14 13 12 12 12 12 11
14 14 14 13 13 14 15 15 12 13 12 12 13 13 13 11 12 13 13 11 10 10 9 9 8 9 8 8 8 8 10 13 16 16 17 16 14 10 13 15 13 10 14 14 10 12 11 11 13 12 13 14 15 14 15 15 18 18 18 19 20 19 20 21 21 20 21 23 22 23 22 22 23 21 20 11 15 17 14 14 14 14 14 12 12
16 16 15 15 16 14 14 4 10 13 14 15 16 15 15 14 15 16 17 17 16 14 13 13 13 13 11 11 10 8 14 22 20 18 17 18 16 16 15 15 15 15 17 19 20 20 21 11 16 22 21 22 21 20 21 22 21 20 19 17 18 19 16 8 7 19 22 23 24 24 24 24 22 22 20 20 19 16 14 15 14 13 13 13 12
15 17 18 18 17 15 14 14 14 12 13 15 18 18 17 16 15 16 18 18 17 16 16 16 16 15 14 14 13 13 11 19 18 7 13 6 9 15 17 17 17 16 12 10 19 19 18 17 14 13 13 10 10 14 15 15 13 16 15 16 17 19 19 20 21 19 17 17 19 20 21 20 21 20 21 20 19 17 10 10 12 14 16 16 15
13 14 16 17 18 16 15 15 14 13 13 11 17 17 8 9 12 16 15 11 11 10 9 16 16 16 15 15 17 15 15 16 7 8 7 5 4 5 7 8 8 12 10 13 12 14 12 10 10 10 11 11 11 11 12 12 13 12 12 9 14 18 19 19 20 18 15 14 17 18 19 17 20 20 19 19 16 18 9 6 12 12 13 12 13
14 14 15 15 15 16 13 14 14 14 12 12 11 12 17 15 9 11 10 8 7 9 9 8 8 9 14 15 16 15 12 10 11 8 9 8 8 7 6 7 9 9 9 11 12 12 9 10 11 11 10 13 11 12 12 13 12 13 14 14 18 18 15 18 18 14 13 11 9 13 15 14 14 15 16 10 7 5 9 9 9 11 13 14 14
17 16 15 14 11 14 14 14 13 13 13 12 12 11 9 15 15 6 7 10 9 8 8 8 8 8 7 8 10 12 11 13 13 13 12 13 13 12 12 11 11 9 5 5 8 9 10 9 10 10 11 11 12 13 14 16 16 17 18 17 17 15 16 16 13 14 12 12 13 14 16 15 13 14 13 11 8 8 11 9 9 9 10 13 13
16 18 19 16 15 13 14 15 14 13 12 12 9 11 13 14 10 13 12 4 4 4 5 5 6 8 7 5 4 3 6 11 13 12 12 14 14 13 12 13 12 9 3 8 10 8 8 9 12 15 15 13 14 15 17 16 16 15 17 18 18 18 20 16 10 18 13 14 15 17 17 17 13 11 10 5 6 7 7 8 8 8 9 10 10
12 16 18 18 20 12 13 15 14 13 13 12 14 14 13 11 12 14 9 16 12 6 2 3 3 6 7 6 6 6 6 8 8 9 11 13 14 14 9 14 12 9 7 10 11 11 13 16 16 16 16 16 16 14 13 15 15 15 14 17 19 21 21 20 19 15 14 13 14 12 13 13 12 12 11 8 8 9 9 8 8 9 9 9 10
10 7 5 11 17 14 14 14 14 12 10 12 10 10 9 9 10 10 13 14 11 7 17 15 8 10 12 9 4 4 5 6 7 8 10 12 14 16 18 14 8 9 13 17 13 17 17 18 16 18 17 15 14 13 14 17 17 16 15 14 15 18 16 15 14 17 15 14 14 13 11 10 9 9 8 9 10 11 11 10 9 9 10 10 9
8 9 13 16 16 12 11 13 14 13 12 10 11 10 10 9 9 10 10 10 10 12 9 13 17 8 13 9 3 3 6 8 9 9 10 11 14 13 14 13 12 14 16 16 16 16 17 17 18 18 18 18 17 16 16 17 16 18 18 17 14 14 14 13 12 13 12 13 11 11 10 9 8 7 4 5 6 7 8 7 8 8 8 8 10
8 9 9 8 10 9 8 7 10 14 9 8 6 6 6 7 9 10 10 10 10 12 11 11 14 16 10 13 10 8 10 8 9 10 10 11 12 15 13 13 14 16 15 16 17 17 17 17 16 16 16 16 16 17 16 16 17 17 13 17 17 13 9 8 10 8 10 9 9 8 7 8 10 9 9 10 11 12 13 12 11 11 9 8 5
9 8 12 16 17 17 10 6 10 6 12 12 8 6 6 9 10 9 7 5 10 8 12 12 6 14 12 15 8 9 10 6 9 10 12 11 10 8 11 10 15 15 15 16 17 16 16 16 16 17 18 17 17 16 15 16 15 13 12 14 12 7 4 7 6 7 6 9 9 9 9 10 11 11 11 13 12 12 13 11 12 11 9 8 7
8 9 5 4 8 17 15 7 6 8 7 7 7 8 9 10 9 9 10 9 7 8 9 11 12 11 12 13 15 11 14 13 7 9 12 12 12 10 11 13 14 15 16 16 15 15 15 16 16 16 16 16 16 16 15 13 13 11 10 10 10 12 13 12 9 9 10 9 8 9 10 10 11 11 11 11 10 9 9 8 7 6 4 5 6
11 13 8 4 14 14 12 9 8 9 7 7 7 6 6 6 7 4 7 5 4 4 5 5 8 9 12 15 13 14 15 7 5 7 8 8 9 11 13 11 12 14 15 15 14 15 15 15 16 15 16 16 17 17 16 14 12 12 12 11 12 11 11 9 9 8 9 10 10 10 11 9 9 8 8 9 8 5 5 6 5 3 4 4 6
9 10 9 8 7 12 11 12 8 9 6 6 7 7 6 6 7 7 5 4 3 4 5 6 6 9 12 9 7 9 16 11 10 9 9 8 9 10 12 10 10 13 14 13 13 14 15 15 15 14 14 15 15 15 16 13 11 11 13 11 10 8 8 7 8 9 9 10 11 12 11 11 11 10 9 7 3 4 5 5 5 5 4 3 3
11 9 10 10 17 14 10 10 9 12 8 8 10 7 8 8 6 8 6 4 4 5 4 7 6 11 11 7 10 10 15 11 12 11 11 12 13 13 9 12 12 13 11 11 15 12 13 15 13 14 15 14 13 13 13 13 12 11 10 10 9 8 10 11 11 11 10 12 11 11 10 10 9 8 8 4 6 5 4 5 4 4 4 4 5
11 10 8 8 11 10 11 12 10 9 9 7 8 5 7 9 6 5 4 6 6 7 4 3 4 9 13 5 9 10 10 14 8 13 12 12 12 9 10 10 10 13 13 14 14 13 12 12 12 13 13 14 14 13 13 13 13 11 11 10 10 10 10 11 11 12 12 11 10 8 7 7 7 7 5 4 5 6 6 5 6 7 7 7 5
10 10 9 9 10 11 7 10 10 7 12 13 12 11 10 7 6 7 7 6 4 4 4 4 6 7 8 10 8 11 13 13 14 13 13 10 11 9 10 9 9 9 11 10 10 11 11 11 11 11 9 11 14 16 13 11 12 12 10 11 13 13 13 12 11 11 10 9 9 8 9 8 8 8 7 7 6 6 6 6 6 6 6 6 5
9 10 10 9 8 10 12 8 8 9 12 8 10 11 9 8 5 7 8 4 6 5 5 5 6 7 9 8 11 9 11 12 11 11 10 9 8 9 9 9 8 8 8 9 9 8 8 9 8 8 9 10 11 11 11 11 11 12 13 13 11 13 12 11 10 10 10 7 9 9 8 8 7 7 7 6 5 5 7 5 6 4 6 6 6
8 9 10 10 10 10 10 10 7 11 9 6 6 8 7 6 6 7 7 6 5 4 5 7 7 7 7 9 9 11 10 12 9 10 11 8 9 10 10 9 9 8 9 8 8 6 8 8 8 7 8 9 8 8 9 9 10 10 12 10 12 11 10 9 8 8 7 7 8 8 7 6 8 9 8 8 7 8 7 5 5 7 7 5 6
8 10 10 10 9 11 8 10 12 14 14 9 7 8 6 7 6 7 7 8 5 6 6 7 6 6 7 7 7 7 9 9 9 8 8 11 8 8 7 7 6 7 8 7 7 7 7 8 8 7 7 8 7 7 8 9 9 10 10 11 12 12 13 14 9 8 8 10 10 10 8 7 6 6 5 6 6 6 5 6 6 5 5 6 6
8 10 11 8 9 12 10 10 12 10 10 9 7 6 7 7 7 6 7 8 9 8 7 6 7 8 8 7 8 6 7 7 7 8 6 7 7 8 7 6 7 8 7 7 7 9 8 8 7 7 7 7 7 8 8 8 9 11 12 14 15 14 14 13 6 7 6 6 6 6 6 8 8 8 8 8 9 10 10 9 7 8 8 9 7
9 10 10 10 10 12 11 9 10 13 8 8 8 8 9 9 8 8 8 7 7 7 7 7 8 8 7 7 7 8 8 8 6 5 4 5 6 8 8 7 5 7 8 8 8 7 7 8 8 8 9 8 8 8 9 9 11 11 12 12 14 13 12 13 12 13 15 13 5 4 5 5 5 5 8 8 9 8 9 7 7 7 7 6 7
13 13 11 10 11 11 11 11 14 13 12 7 8 8 8 8 8 8 7 7 7 8 8 7 7 7 7 8 8 7 8 7 5 4 3 3 6 7 7 6 6 6 7 7 7 8 7 6 6 7 8 8 8 8 10 11 11 13 11 13 13 12 13 12 7 9 12 11 8 8 8 7 6 6 7 7 6 7 8 7 7 7 6 6 6
12 10 10 10 11 10 11 11 9 12 10 9 8 6 8 6 7 8 8 8 8 7 8 9 9 8 8 8 7 7 7 7 7 4 3 4 6 5 5 5 5 3 5 5 6 6 7 7 8 7 7 8 9 10 11 12 11 11 11 11 12 13 13 13 12 12 15 12 8 8 8 9 9 11 11 13 10 7 6 6 6 7 7 6 6
Wind_Speed
17 16 13 12 13 13 11 10 12 11 14 12 11 10 9 9 9 9 9 8 8 8 8 8 7 7 7 6 6 6 7 6 5 5 6 6 6 6 6 7 7 5 6 6 6 6 7 7 8 8 8 6 5 6 7 7 6 7 7 4 5 4 6 5 8 8 5 4 5 7 9 9 9 9 9 8 10 9 10 7 12 10 10 8 10
16 15 13 11 13 11 10 7 7 9 10 12 9 10 10 9 9 9 9 9 9 8 8 7 7 7 7 7 6 6 7 7 7 6 6 6 6 5 6 6 6 6 4 6 5 5 6 8 8 6 7 7 7 8 8 7 8 9 6 6 7 7 7 9 10 8 8 5 5 6 9 9 8 10 9 9 10 10 11 9 10 10 9 9 9
14 13 11 9 10 8 7 4 1 9 13 11 10 11 10 10 9 9 8 8 9 8 8 7 7 7 6 5 5 5 6 6 5 6 6 6 6 6 5 5 5 6 6 6 7 5 6 7 8 8 7 7 7 8 7 8 8 8 7 6 8 8 9 6 11 10 9 7 6 7 8 8 7 10 11 10 10 10 11 10 9 9 8 9 9
11 11 9 11 9 7 6 7 7 10 13 11 12 11 11 10 9 9 8 8 9 8 8 8 6 6 6 6 5 4 5 3 4 5 6 5 5 6 5 5 5 5 5 5 6 7 6 6 7 8 7 7 8 8 8 8 8 7 7 6 7 8 6 6 8 8 9 9 7 8 8 8 8 8 9 10 10 9 9 9 10 9 9 8 9
12 12 11 10 9 9 7 7 14 14 14 12 13 13 11 10 8 9 8 8 9 8 8 8 7 7 6 6 5 5 4 4 4 4 3 3 4 5 4 4 5 5 5 8 7 7 6 5 5 8 7 9 7 9 8 9 9 6 7 7 6 7 3 3 2 6 9 9 8 8 9 10 8 7 8 9 10 9 9 9 9 9 9 9 2
9 12 11 10 7 7 7 7 11 13 13 12 13 12 11 10 9 7 8 9 8 8 9 7 7 8 7 6 5 5 5 4 5 5 4 4 4 4 6 5 5 6 7 6 5 6 6 8 7 3 7 5 6 8 7 9 7 7 9 8 7 7 6 5 5 4 5 6 9 8 6 7 8 7 8 8 8 9 8 8 8 7 6 7 5
9 11 14 14 10 12 12 11 5 10 11 11 10 10 9 10 8 9 8 9 8 8 8 8 7 7 7 6 6 5 5 5 3 3 5 5 3 5 4 4 5 5 5 6 7 5 6 5 7 9 8 7 7 8 7 7 6 6 7 7 9 10 8 7 7 6 6 5 5 8 8 6 5 7 8 8 8 7 7 7 7 7 7 7 6
11 12 15 15 15 14 10 10 7 8 10 11 11 9 10 8 11 9 9 8 8 8 8 7 6 6 6 6 5 5 4 4 2 3 4 5 5 4 3 4 4 5 6 6 4 4 4 5 4 5 7 8 8 8 7 7 6 6 5 5 7 5 8 7 6 7 8 7 7 5 5 7 7 7 8 8 8 8 8 8 8 7 7 6 8
14 13 14 14 13 11 9 7 7 8 10 12 11 11 9 11 9 9 8 8 6 7 7 6 6 5 5 3 1 2 4 9 7 7 8 1 6 4 5 4 4 5 4 3 4 5 4 4 3 4 9 8 11 7 6 6 3 7 6 5 6 5 5 6 7 7 7 7 8 7 7 7 7 7 7 7 8 8 6 6 6 7 7 5 7
14 12 12 12 11 11 10 8 7 7 9 9 10 10 10 8 8 8 8 7 7 6 6 6 5 5 6 5 5 5 7 5 7 9 6 6 5 5 5 5 5 5 6 6 6 5 5 4 6 8 9 9 9 9 8 8 9 6 4 4 6 7 6 6 7 7 7 8 8 8 8 8 8 8 7 8 7 6 6 6 8 8 8 9 6
14 13 12 12 12 11 10 9 8 8 8 8 9 9 9 8 6 7 7 7 7 7 6 6 6 6 6 6 6 7 5 5 11 10 11 11 7 7 5 3 4 6 6 6 6 5 5 5 5 6 5 3 2 4 4 5 7 8 7 5 4 3 5 6 8 8 7 8 7 8 8 8 8 7 7 8 7 8 7 7 8 8 9 8 9
11 12 13 14 13 13 11 10 9 8 8 9 10 10 10 9 6 5 6 6 6 6 6 7 6 6 6 8 7 6 5 8 9 9 9 8 6 6 3 4 3 3 4 5 5 5 6 6 5 4 5 4 3 6 4 2 3 4 5 8 9 5 4 1 5 6 7 8 8 8 8 8 8 6 6 6 7 7 8 8 9 9 9 9 9
13 13 13 12 13 12 10 10 9 9 8 8 8 9 10 10 9 9 8 5 4 4 5 6 7 7 6 7 7 6 6 9 8 7 6 6 6 5 5 5 3 4 3 4 5 6 6 5 5 4 4 6 3 4 5 6 5 2 1 4 4 6 11 5 5 4 5 7 7 9 9 7 7 7 5 6 5 6 6 8 8 8 9 10 10
13 13 12 12 11 11 11 11 10 8 7 8 9 9 10 9 8 7 7 8 9 8 8 7 7 6 6 7 7 7 7 10 11 8 6 6 5 5 6 3 2 3 3 3 2 2 2 2 4 5 3 4 4 5 4 4 5 5 4 4 5 6 7 8 10 7 4 4 6 7 7 7 8 7 6 6 7 8 8 8 8 10 9 10 8
14 14 13 12 12 12 12 12 10 9 8 8 9 9 8 7 8 5 5 6 6 7 7 7 6 6 7 7 7 7 5 10 11 11 10 9 8 7 3 0 3 3 2 1 1 1 2 3 3 2 4 2 8 8 2 3 4 4 5 6 6 7 7 7 6 5 4 5 6 8 8 9 6 7 7 7 8 7 7 8 8 8 8 6 1
15 14 15 13 12 12 12 12 11 10 9 8 10 9 8 7 7 6 7 6 7 6 6 7 7 6 6 7 7 7 6 12 12 12 12 12 11 5 3 3 4 3 4 2 4 4 4 3 3 5 3 8 9 12 9 6 4 6 6 7 7 8 8 7 4 1 4 6 7 7 6 1 2 3 4 4 6 5 7 8 8 9 9 10 10
14 13 14 13 12 11 9 10 10 10 9 9 8 8 8 8 7 5 6 6 6 6 4 5 6 6 6 6 6 6 6 10 12 13 13 14 9 5 4 4 4 3 2 2 3 1 3 4 4 2 8 7 9 12 13 10 4 6 8 9 8 8 8 6 8 8 2 7 12 14 12 13 13 11 10 9 5 6 7 9 9 9 9 13 11
12 12 11 10 9 9 10 10 10 8 9 9 8 7 7 6 6 5 5 5 6 6 5 5 6 5 5 5 5 6 6 9 12 13 14 15 12 7 3 3 2 2 3 3 3 4 8 13 10 7 8 7 10 12 13 9 5 6 8 8 9 10 9 5 5 5 3 5 7 8 9 11 11 12 12 11 11 6 9 12 8 9 9 4 10
11 11 10 9 9 9 9 10 10 9 8 8 7 6 6 5 6 6 5 6 6 6 5 5 6 6 6 5 5 6 6 8 12 12 14 14 11 7 6 2 2 1 2 2 2 5 7 10 14 12 9 7 11 11 12 10 4 6 7 8 8 9 6 5 4 3 6 8 7 6 7 9 10 10 10 15 13 8 9 12 11 12 8 8 10
9 9 8 7 7 7 8 9 9 9 8 7 7 6 5 5 5 5 5 5 5 4 4 4 5 5 4 4 6 6 6 6 8 11 12 13 14 9 5 6 5 4 2 4 2 1 9 8 10 12 11 11 10 10 10 9 6 6 7 6 7 6 8 8 7 6 5 7 8 9 9 9 9 7 9 10 10 10 10 11 10 10 11 11 9
6 6 7 8 10 10 9 9 9 8 7 7 6 6 6 5 5 5 5 4 4 4 4 4 4 3 2 3 4 5 5 5 7 10 11 12 14 12 5 7 7 6 6 5 4 4 1 9 6 7 7 7 7 7 5 5 5 5 5 6 6 7 9 8 9 8 8 7 8 7 9 10 9 8 8 8 8 8 8 10 10 9 10 9 9
8 8 8 9 9 8 8 7 7 6 7 6 5 5 5 4 4 4 3 4 4 3 2 3 3 3 3 3 3 4 6 8 5 7 8 10 11 13 7 7 7 6 6 4 6 4 6 5 5 6 8 9 8 7 6 5 5 4 5 7 10 10 7 6 7 8 8 9 9 9 9 10 10 6 6 7 10 9 8 9 10 9 7 7 8
8 8 8 8 9 9 8 8 7 6 6 6 4 4 4 4 3 3 3 4 4 4 4 4 4 4 3 2 3 4 5 6 6 6 6 7 7 8 8 6 9 6 4 4 5 4 5 7 6 12 11 11 10 11 10 9 7 6 9 9 9 8 6 5 6 6 8 9 10 10 11 11 10 8 10 9 8 11 7 8 7 8 8 5 1
7 7 7 7 7 7 7 8 7 6 6 5 5 4 3 3 3 2 1 2 3 3 3 2 3 3 3 3 2 3 4 6 5 7 5 3 3 2 3 2 4 3 3 2 4 4 4 4 6 10 10 11 11 10 10 9 8 11 12 12 11 8 5 6 6 6 8 9 9 10 11 10 10 10 8 7 8 7 1 5 4 5 6 2 2
7 7 8 7 6 7 7 6 6 5 5 4 4 3 2 1 2 1 1 1 2 3 2 2 2 2 3 4 4 4 4 7 5 5 6 6 5 3 1 1 3 2 3 2 3 4 6 6 7 7 8 9 11 11 9 10 13 12 12 12 7 4 5 5 6 6 7 8 9 10 11 10 11 11 11 11 10 6 7 6 4 3 2 4 5
8 8 7 7 7 7 5 6 6 5 4 4 4 3 2 2 2 2 2 2 2 2 2 1 2 2 2 2 3 3 4 5 6 5 5 6 5 7 6 7 6 8 7 6 7 6 6 5 8 11 11 10 8 6 6 6 9 12 13 10 5 7 8 8 7 8 8 9 9 10 10 10 10 10 10 9 8 9 5 5 4 5 5 5 3
7 7 7 6 6 7 8 6 4 5 5 5 5 4 4 4 4 5 5 3 2 2 2 2 3 3 2 2 2 3 4 6 7 7 8 6 5 1 5 6 9 8 6 5 6 5 5 6 6 9 10 12 12 12 12 11 10 9 8 8 8 7 7 8 7 7 8 9 9 9 9 10 10 10 9 5 4 5 6 4 5 5 6 5 4
7 7 7 7 6 6 6 3 4 5 5 6 6 6 6 6 6 7 7 7 6 6 5 5 5 5 4 3 2 1 5 9 8 7 7 7 6 6 6 6 6 6 6 8 8 9 9 8 10 10 9 9 9 8 9 9 10 9 8 5 5 7 9 7 3 8 9 10 11 11 11 11 10 10 9 9 9 7 6 6 6 5 5 6 5
8 9 8 8 7 6 6 6 5 4 5 6 7 8 7 7 6 7 9 7 7 6 6 6 6 6 5 6 5 5 4 8 7 5 5 4 3 6 7 6 6 6 6 7 8 9 7 7 6 5 5 3 3 5 6 6 5 7 8 6 7 8 8 9 9 9 7 7 8 9 10 9 10 9 10 9 9 7 4 3 3 4 5 5 5
5 6 7 7 7 6 6 6 5 5 4 3 7 6 6 7 7 5 6 7 8 8 8 6 6 6 5 6 7 6 6 5 5 7 6 4 3 4 6 7 7 6 8 11 7 5 4 3 3 2 3 3 4 4 4 4 4 4 4 6 6 8 8 9 9 8 7 5 5 6 7 7 9 9 9 9 7 7 4 0 5 6 4 5 4
5 5 5 5 5 6 5 5 5 5 4 4 2 5 7 4 6 9 9 7 7 8 8 7 7 8 6 5 8 12 11 8 9 6 5 4 2 3 5 6 8 8 7 5 4 4 3 3 4 4 3 5 3 4 4 4 4 4 4 5 7 8 6 8 8 5 5 4 3 2 4 5 6 6 8 5 3 2 2 2 3 2 4 5 6
7 6 5 5 3 5 4 5 5 4 4 3 3 4 1 6 6 4 6 9 8 7 7 7 7 7 6 4 5 3 7 9 8 8 7 7 7 7 6 7 8 6 2 4 2 2 3 2 3 3 4 4 4 5 5 5 6 6 7 7 7 6 6 6 5 6 4 5 5 5 5 4 4 4 5 5 4 3 3 3 2 2 3 4 5
8 9 8 7 6 5 6 5 5 4 4 4 3 3 4 5 3 4 5 4 4 3 4 5 5 7 6 5 4 2 3 7 8 8 9 10 11 10 9 10 9 4 2 2 3 2 2 3 3 5 5 4 4 5 7 7 7 5 5 6 7 8 9 8 6 8 5 5 4 5 7 7 6 4 5 2 0 1 1 1 1 1 2 3 3
6 7 8 7 8 4 5 6 6 5 5 3 4 5 5 4 4 6 2 5 3 2 2 1 2 3 6 6 5 5 5 7 7 8 9 11 12 11 8 7 10 6 4 3 4 4 4 7 6 6 6 6 6 5 5 5 5 5 5 7 7 8 9 10 9 6 6 5 4 5 5 4 4 4 4 3 1 1 2 2 2 3 2 2 3
4 2 4 8 7 6 6 5 5 4 4 5 4 3 3 3 3 3 5 6 4 2 6 3 4 9 4 5 3 1 3 5 6 6 7 10 11 12 15 5 1 2 4 6 4 7 7 8 6 8 7 6 5 4 6 7 7 6 5 5 6 7 5 6 6 8 6 5 5 5 5 4 4 3 3 3 2 2 2 2 2 2 2 3 3
3 2 3 5 7 5 4 5 6 5 5 4 4 4 3 3 3 4 4 4 3 5 2 5 7 5 8 8 4 2 5 6 7 7 8 9 11 11 5 5 4 6 7 7 6 6 6 6 6 6 7 7 7 7 7 7 8 8 7 7 6 6 4 4 4 4 4 4 4 5 5 3 3 3 2 0 0 1 1 2 3 3 2 1 1
3 3 3 3 4 3 3 2 3 6 5 3 1 1 2 2 3 4 3 3 3 4 3 4 4 6 5 6 6 6 8 6 7 8 8 9 10 8 4 4 5 6 6 6 7 7 6 6 6 6 6 6 7 7 7 7 7 7 7 7 8 6 3 3 3 3 3 3 3 3 3 3 4 4 4 5 5 6 6 6 5 4 3 4 1
3 1 4 7 7 8 4 1 3 3 3 4 2 2 2 3 4 3 2 1 3 2 5 4 3 5 4 6 6 5 2 5 6 7 9 9 4 2 4 3 6 6 6 6 7 6 6 6 7 7 7 7 7 6 6 7 6 4 4 6 5 3 3 2 4 3 3 3 4 3 4 5 5 5 5 5 5 5 6 6 5 5 4 4 3
1 6 4 4 7 6 6 2 1 2 2 2 2 3 3 4 3 3 3 3 2 2 4 4 4 4 4 5 6 6 8 4 1 3 5 4 4 3 4 5 6 6 6 6 6 6 6 6 6 6 6 6 7 7 6 4 5 4 4 4 3 5 5 5 3 4 4 3 3 3 4 4 4 4 4 4 5 4 4 3 2 2 2 2 2
4 5 3 3 4 6 5 4 1 3 2 2 1 1 1 2 2 1 2 1 1 1 1 1 2 3 4 6 5 5 6 2 1 2 3 3 3 4 5 3 3 5 5 5 5 5 6 6 6 6 6 7 7 7 7 6 4 5 5 4 5 5 5 4 3 3 3 3 4 4 4 3 3 3 3 3 2 2 2 2 1 1 2 2 2
3 3 6 5 3 3 5 5 1 3 1 1 2 1 0 1 1 2 1 0 0 0 0 1 1 2 4 3 6 5 6 4 3 3 3 2 2 3 3 2 3 4 5 4 4 5 6 6 6 5 5 6 6 6 7 5 4 4 5 4 4 3 3 3 3 4 4 5 5 4 4 5 5 4 3 2 2 1 0 0 1 1 0 1 0
3 3 4 3 7 6 3 3 1 4 2 2 3 2 3 3 1 2 1 1 0 0 0 2 1 4 5 4 8 8 7 3 4 3 3 4 4 4 3 4 4 5 3 4 6 4 4 6 5 5 5 6 6 5 5 5 5 4 4 3 3 3 4 4 4 4 4 4 4 4 4 3 3 2 2 2 1 1 1 2 1 0 0 1 1
5 4 3 3 3 3 3 4 3 2 2 1 2 4 1 3 0 1 1 0 1 1 0 0 0 3 5 4 3 8 2 5 4 5 4 4 4 3 3 3 3 4 5 5 5 4 4 4 5 5 5 5 5 5 4 5 5 4 4 4 4 4 4 3 3 4 4 4 3 3 3 2 2 1 1 1 0 1 1 0 1 2 2 2 2
4 4 3 2 3 4 2 2 3 2 5 4 4 4 3 1 1 2 1 0 0 0 0 0 0 1 2 4 2 3 4 4 4 4 5 3 4 3 3 3 3 3 4 3 3 3 4 4 4 4 4 4 5 7 4 4 3 4 4 4 5 5 5 4 4 4 3 3 3 3 3 3 2 3 2 2 2 2 2 2 2 2 2 2 1
3 3 4 3 2 3 4 1 1 0 5 2 3 4 3 2 1 2 2 0 1 1 0 1 1 2 2 2 3 2 3 4 4 4 3 3 2 3 2 2 2 3 3 3 3 3 3 3 3 4 4 3 3 4 4 4 4 4 4 4 4 4 4 4 4 3 3 3 3 3 3 2 2 2 2 2 2 2 2 2 2 3 2 3 2
1 1 4 4 3 4 3 3 1 4 3 1 1 1 1 1 0 1 2 1 0 0 1 1 2 2 2 2 2 4 3 4 3 3 3 2 3 3 3 2 2 2 3 2 2 2 2 2 3 3 3 3 3 2 3 3 3 4 5 3 4 3 3 3 2 2 2 3 3 2 2 2 3 3 3 3 3 3 2 2 2 2 2 2 2
2 3 4 4 3 4 2 2 3 5 5 3 1 1 0 1 0 2 1 1 1 1 2 2 2 1 2 2 2 2 3 2 2 2 2 4 2 2 2 2 1 2 2 2 2 2 3 3 3 2 2 3 2 2 2 2 2 3 3 4 4 5 5 6 3 3 3 4 4 4 3 2 2 2 1 2 2 2 2 2 2 2 2 2 2
3 3 4 3 3 4 4 3 2 4 2 2 1 1 0 1 2 1 0 2 3 2 1 1 2 2 2 2 2 1 2 2 1 2 1 1 2 2 2 2 2 2 2 2 2 3 3 3 2 2 2 2 2 3 2 3 3 4 4 5 5 5 7 8 2 2 2 2 2 3 3 3 3 3 3 3 3 3 3 3 3 3 3 3 3
3 2 4 4 3 4 4 3 3 5 1 2 1 1 3 3 2 2 2 2 1 2 2 2 2 2 2 2 2 2 2 2 1 1 0 1 1 2 2 2 2 2 2 2 2 2 2 2 3 2 3 2 2 2 3 3 4 4 4 4 6 10 10 10 7 6 9 6 1 2 2 2 2 2 3 4 3 3 3 3 3 3 3 3 3
6 6 5 4 4 4 4 4 5 4 4 2 1 2 2 3 2 2 2 2 2 2 2 2 2 2 2 2 1 1 1 2 1 0 0 0 1 2 2 2 1 2 2 2 2 2 2 2 2 2 2 3 3 3 4 4 4 4 4 5 9 9 9 9 6 8 6 4 3 3 3 3 3 3 2 3 3 3 3 3 3 3 2 2 3
5 4 3 3 4 4 4 4 3 4 3 3 2 1 2 2 2 3 2 2 2 2 2 2 2 2 2 2 1 1 1 1 1 1 0 0 1 1 1 1 0 0 1 1 1 1 2 2 2 2 2 3 3 4 4 4 4 3 5 6 8 8 9 9 5 9 12 9 3 3 3 3 4 5 4 4 4 2 1 2 3 3 3 2 2
Wind_Direction
160 165 167 164 160 157 158 156 161 182 193 175 175 165 165 159 156 156 155 160 159 165 169 168 174 174 188 189 190 194 198 196 201 204 204 203 201 212 194 203 206 200 198 193 184 190 201 194 187 174 207 187 171 185 182 186 175 202 196 205 141 190 200 164 162 141 150 160 162 166 157 165 175 178 181 165 161 191 226 180 146 171 183 199 186
166 158 157 153 151 148 145 152 175 184 168 174 161 161 158 163 159 161 168 160 163 169 165 166 174 185 186 194 194 195 201 194 196 200 207 204 200 203 201 204 212 199 202 207 196 208 185 199 193 176 209 170 185 194 185 178 182 203 174 188 163 191 211 192 142 147 153 173 182 179 154 185 185 185 181 174 168 190 202 204 170 197 206 213 202
163 155 146 130 141 133 125 109 135 186 172 171 165 163 166 164 166 162 163 154 166 165 162 161 180 182 178 195 195 197 208 201 191 197 203 203 205 189 196 199 201 198 204 200 203 207 193 198 181 180 196 174 192 197 180 181 193 205 166 189 160 190 210 241 144 154 162 175 190 191 166 184 217 183 191 184 186 191 201 210 206 200 209 208 228
149 145 129 128 113 114 121 155 197 199 170 170 172 166 167 167 162 162 160 160 160 167 148 172 172 174 179 191 187 187 199 184 192 205 201 210 210 197 197 192 196 200 203 205 197 202 199 201 201 180 186 188 180 202 174 193 211 196 162 190 153 195 188 300 167 156 174 168 195 205 167 182 210 218 190 189 191 200 203 205 215 219 211 211 221
151 137 129 123 138 151 159 185 200 184 173 170 172 164 166 162 164 162 157 163 159 157 160 170 177 173 181 193 173 188 176 183 184 192 171 205 211 202 200 198 195 198 190 203 186 184 192 199 211 175 196 189 173 207 179 192 217 166 185 178 178 170 193 211 220 167 174 179 174 230 190 174 197 217 212 195 188 203 210 219 217 215 219 230 211
131 125 118 115 116 101 129 215 209 173 168 169 166 162 163 158 160 158 164 164 157 167 167 173 182 172 182 189 175 182 186 179 178 176 167 181 185 179 205 187 191 193 204 213 176 168 182 167 212 190 192 201 185 204 187 193 213 187 183 191 183 163 185 198 223 241 250 207 174 184 267 181 190 204 222 209 206 197 205 215 227 237 237 235 147
142 146 137 135 130 149 170 166 224 164 164 165 160 160 156 150 165 166 185 157 168 170 170 172 185 174 181 181 192 171 189 186 179 192 176 175 157 173 190 184 185 182 202 191 182 169 184 172 167 181 195 175 204 209 198 202 212 225 179 207 202 162 185 184 211 215 227 258 244 191 187 218 223 200 212 230 216 229 222 220 237 228 217 219 219
155 153 143 143 151 152 154 137 137 135 156 158 160 150 152 173 175 175 165 161 169 172 169 170 173 187 167 196 179 179 170 204 180 178 216 167 185 168 197 195 176 173 211 192 194 184 197 165 177 188 190 188 185 213 214 204 209 227 198 206 244 168 173 190 220 215 203 221 235 246 218 208 197 236 239 215 223 220 231 244 229 209 217 208 213
151 149 143 142 143 125 114 111 116 131 154 163 161 160 163 177 180 166 165 159 173 167 164 159 172 171 146 190 121 113 80 48 32 12 354 258 168 184 197 212 200 176 187 194 167 197 204 191 199 68 56 48 50 43 33 14 232 215 223 229 228 232 202 203 211 224 232 219 216 230 237 219 221 205 216 245 241 245 223 223 245 266 271 250 197
141 143 140 132 128 125 116 103 100 112 125 145 158 158 167 171 169 160 161 158 165 153 154 155 160 150 163 149 157 88 52 51 9 350 6 5 338 196 176 216 204 214 209 206 191 220 207 204 89 72 52 47 41 34 24 6 16 27 340 275 238 227 230 237 228 224 229 229 229 223 222 232 224 229 223 219 241 251 248 257 261 250 237 251 265
138 141 134 131 130 127 127 125 122 125 116 122 126 142 157 157 152 154 154 153 148 145 149 150 149 151 144 145 98 68 56 24 355 7 3 7 355 333 168 194 208 222 205 221 224 219 223 228 134 105 124 96 76 52 351 357 10 16 10 28 34 13 276 232 234 246 239 238 233 232 234 238 237 235 233 226 226 239 243 247 253 255 259 256 255
110 127 140 131 119 127 125 127 125 121 115 112 107 97 85 86 104 123 127 132 136 145 153 153 145 121 98 87 77 70 64 19 356 9 6 359 1 342 297 202 191 225 220 217 213 219 213 213 202 152 192 171 173 157 159 185 316 356 9 360 350 350 125 146 297 273 259 257 253 252 248 240 241 236 243 245 237 233 236 242 244 252 257 252 248
66 59 60 82 106 107 109 116 101 95 91 88 88 86 89 90 85 80 70 61 80 125 137 121 105 102 98 94 84 75 68 11 356 6 8 353 353 327 260 203 219 212 239 232 237 219 197 184 202 189 147 114 220 202 182 170 177 169 295 312 279 273 295 274 183 221 308 308 283 267 265 269 271 261 255 268 286 272 257 247 251 252 251 254 259
66 66 71 74 87 94 92 80 73 63 67 79 81 82 83 77 66 62 72 75 74 69 64 75 85 87 84 88 79 66 45 3 350 357 4 349 344 325 276 220 222 233 193 231 249 300 312 237 198 194 171 179 219 232 248 227 161 186 208 233 250 222 214 250 265 253 206 252 287 288 292 295 286 285 273 255 250 253 251 247 244 253 251 252 263
70 71 70 61 67 78 76 83 75 68 61 65 68 68 66 67 65 47 40 50 64 69 67 61 70 81 80 80 83 65 45 5 4 360 2 349 342 294 270 81 211 221 214 191 282 236 201 221 258 258 215 91 31 4 330 296 271 261 248 242 244 254 248 239 225 241 248 248 264 277 281 281 291 298 308 296 268 256 256 265 268 263 265 268 195
66 66 64 59 60 63 69 71 71 65 56 54 67 68 57 47 55 56 64 60 49 53 86 111 109 108 102 95 91 81 52 21 10 9 6 2 338 288 219 207 230 205 183 187 208 194 204 218 225 239 65 64 15 26 28 2 331 292 275 261 261 255 253 241 245 205 252 263 258 264 273 334 29 328 326 316 266 246 258 263 259 260 256 253 253
55 52 55 51 54 58 60 67 68 67 64 63 62 67 74 66 56 49 67 66 71 51 26 69 101 107 103 95 92 84 57 21 14 13 9 5 350 288 203 218 195 207 207 196 238 204 51 31 5 318 73 58 22 25 17 1 303 275 266 271 267 267 264 256 190 192 215 321 343 348 340 334 328 326 319 308 291 284 272 263 257 252 254 257 256
39 44 47 44 44 47 53 57 62 62 67 72 72 75 72 69 65 50 66 75 74 74 66 44 56 73 84 94 96 93 69 35 22 16 12 7 354 340 293 234 182 228 189 211 253 96 58 43 31 52 62 48 27 34 19 4 290 280 274 275 276 272 272 298 33 39 43 238 253 272 283 290 292 296 293 284 278 268 241 250 243 259 263 289 277
32 37 40 41 39 38 45 54 59 52 47 52 52 59 59 70 87 90 82 71 75 75 69 67 66 65 55 46 31 79 79 51 32 20 12 14 6 344 333 317 200 219 310 169 200 122 93 59 51 55 58 45 38 33 25 7 328 302 315 295 282 274 294 358 331 358 336 312 299 290 271 254 254 249 253 251 248 259 250 249 253 249 242 232 241
32 35 39 42 51 54 53 57 59 58 55 51 48 50 54 60 70 80 76 79 74 82 102 78 72 63 49 43 40 46 68 61 33 28 17 11 10 354 358 2 13 8 340 332 333 176 116 100 68 53 52 43 41 33 25 17 355 335 324 307 296 318 9 334 334 326 303 268 263 265 266 270 265 239 240 242 228 222 231 238 245 252 254 252 238
46 44 41 43 44 50 52 56 56 53 55 56 54 57 54 52 52 66 70 66 72 69 71 85 91 110 94 78 69 54 34 62 62 34 27 20 16 5 10 26 8 359 348 354 333 336 337 93 88 68 60 50 43 27 29 14 354 322 304 297 333 348 328 320 321 320 300 288 275 264 263 263 264 266 268 257 239 218 225 231 239 242 248 259 273
43 52 58 55 53 51 51 58 70 64 52 43 49 69 75 74 73 86 105 110 118 114 140 150 142 134 133 116 108 101 64 32 72 60 40 35 32 27 26 42 15 340 340 329 330 339 349 55 64 42 34 23 11 9 352 344 329 291 287 297 314 325 326 306 298 292 285 277 266 257 249 250 251 242 240 260 272 250 208 215 223 235 242 248 253
51 49 54 59 59 54 47 47 51 61 76 78 64 61 75 84 83 100 132 147 152 163 171 173 168 155 146 124 110 102 110 92 58 76 58 46 38 51 40 36 354 342 342 337 328 332 340 349 34 14 360 1 356 343 335 327 301 274 281 291 294 311 298 278 283 285 276 274 273 272 268 264 254 238 233 237 256 266 236 204 199 217 232 255 46
56 54 54 54 58 60 61 55 45 44 50 64 70 50 52 76 88 86 120 164 147 147 139 158 169 151 138 121 112 113 128 109 98 99 111 113 96 77 55 43 358 8 336 281 300 310 315 30 348 343 349 335 319 316 316 305 277 278 282 282 283 285 281 278 270 270 273 268 266 265 263 264 268 274 267 246 234 230 313 253 189 196 212 139 74
50 54 52 55 58 62 62 62 62 57 52 46 64 85 83 100 104 108 148 146 152 159 162 158 154 130 129 124 123 121 114 127 123 142 153 164 172 161 124 31 260 250 279 289 317 1 15 325 327 307 296 292 288 292 283 274 274 271 266 266 269 271 274 274 268 265 267 264 264 264 261 256 254 255 263 264 257 221 164 219 190 194 141 86 69
42 48 58 55 46 48 52 73 69 52 71 83 73 50 53 76 94 132 132 106 89 74 73 78 77 74 85 98 101 107 124 119 119 132 165 170 193 201 203 209 222 221 240 303 315 304 289 275 268 273 279 272 273 268 262 265 257 261 268 266 266 265 259 262 266 264 266 267 264 264 269 271 267 266 263 272 273 264 208 187 181 163 130 113 95
54 47 41 46 60 61 44 13 43 65 33 42 51 44 37 42 41 32 27 33 64 87 93 74 84 91 83 91 112 132 129 87 59 39 29 12 2 349 189 213 223 235 234 230 236 246 245 232 261 262 262 268 267 273 276 279 273 250 234 235 242 254 256 248 264 290 290 291 291 290 293 296 294 298 286 284 253 219 203 201 200 180 176 175 158
30 36 46 51 37 36 61 351 336 71 63 47 38 29 30 31 51 42 22 12 3 16 25 44 38 31 24 41 35 89 106 66 41 26 18 6 355 352 2 0 5 356 2 358 340 322 312 287 255 246 245 244 245 235 233 235 240 241 257 270 237 233 250 282 291 277 277 280 284 293 297 297 296 290 290 278 274 278 260 230 230 205 158 147 147
36 35 30 26 28 27 34 38 37 33 72 92 68 48 36 26 34 66 49 28 26 11 8 34 25 13 2 27 12 12 39 52 37 27 27 14 345 343 353 358 351 334 18 3 326 315 306 288 298 305 312 319 321 324 333 334 331 328 326 314 306 314 316 307 297 299 303 307 301 302 299 300 296 297 287 279 276 265 265 248 212 196 163 178 187
57 55 45 36 16 11 27 26 27 37 27 68 114 90 30 39 37 41 77 81 68 49 40 42 14 356 356 39 42 20 36 46 56 31 22 4 348 312 303 309 307 290 302 308 291 290 277 278 291 321 337 338 345 342 336 335 329 322 317 326 312 299 303 306 300 300 309 304 314 312 307 305 300 293 287 286 287 282 312 266 227 236 194 186 163
43 52 54 50 34 4 34 30 20 19 29 15 31 136 138 106 90 101 110 131 120 119 114 107 69 31 13 18 81 88 89 67 28 13 356 341 299 257 250 251 256 257 265 290 262 241 277 347 356 349 340 340 334 327 327 316 315 316 309 309 310 309 303 296 299 303 302 297 277 276 279 281 282 287 283 278 293 311 105 155 117 151 164 148 151
7 11 22 25 62 32 22 43 18 21 11 17 27 352 42 129 126 112 124 131 133 126 126 120 114 105 71 50 2 113 55 27 0 350 336 329 322 321 323 308 288 277 237 214 285 327 20 351 347 340 341 335 338 335 332 334 334 328 326 323 319 318 311 297 322 330 324 315 309 293 279 267 263 282 298 299 287 231 191 163 150 159 163 175 171
6 3 355 358 358 25 13 28 20 360 5 352 21 48 21 1 46 127 121 98 82 70 72 89 107 104 84 78 96 82 305 322 339 335 333 323 324 329 329 311 300 300 115 243 255 316 5 358 348 342 340 338 339 342 338 329 324 324 323 323 319 314 310 316 334 320 328 329 320 304 302 313 324 309 286 296 17 75 66 84 105 75 66 77 83
14 17 358 346 318 353 23 9 6 1 356 26 22 360 23 6 9 355 116 154 144 110 122 40 16 108 107 69 41 352 343 338 340 335 329 319 313 312 307 283 267 248 224 300 316 341 2 355 336 338 338 338 328 326 325 319 319 317 317 312 309 305 309 319 318 322 322 334 336 334 328 317 314 306 291 267 236 149 141 149 127 135 139 121 115
354 75 301 310 325 6 15 5 350 357 348 348 14 11 37 7 5 8 6 2 3 156 152 159 204 228 154 151 116 39 308 294 307 303 301 303 307 318 314 296 281 188 196 232 309 8 350 340 345 341 339 336 337 333 324 321 320 317 310 313 311 315 317 323 332 338 344 342 340 334 339 343 333 314 300 264 238 210 172 143 138 135 129 136 148
313 292 257 259 290 353 16 3 347 344 341 12 7 4 352 359 346 7 358 360 351 345 358 125 131 132 120 101 129 216 260 261 277 301 307 314 312 333 333 17 340 3 359 3 1 1 346 344 346 346 346 344 341 337 336 333 326 319 323 327 327 325 340 4 3 354 351 343 335 347 342 324 323 303 300 323 182 181 144 139 138 132 131 157 154
300 310 316 322 336 333 18 3 30 358 349 334 322 314 345 349 351 341 351 357 352 331 324 23 63 144 175 157 175 205 230 263 268 277 292 297 308 308 336 6 350 354 353 357 9 356 345 352 350 348 344 342 344 343 339 333 334 327 335 328 325 328 360 344 11 354 353 356 8 9 353 22 27 28 47 51 41 38 32 31 37 37 36 6 7
252 323 355 358 336 331 300 303 92 130 262 263 282 296 333 351 355 335 333 355 350 318 318 49 36 344 352 355 10 9 327 226 235 264 264 262 273 336 10 3 356 2 355 6 14 356 353 353 357 352 354 353 348 345 343 340 333 329 330 333 316 316 287 319 46 13 29 34 35 36 39 37 30 38 45 56 51 48 41 29 25 23 12 2 6
41 65 60 329 321 324 334 353 74 193 241 290 334 8 352 335 341 344 343 351 9 353 345 346 353 356 354 350 346 336 288 283 24 32 26 18 14 1 17 12 10 11 3 6 5 4 359 2 2 359 354 356 348 346 349 346 335 329 342 330 343 27 18 24 24 27 36 41 51 50 45 42 39 35 40 47 47 51 55 52 46 39 20 344 318
175 162 134 244 266 258 284 305 214 197 191 263 256 275 283 320 321 339 346 24 9 343 333 342 347 8 6 351 353 345 337 358 24 34 36 19 17 7 20 27 11 17 13 14 13 11 6 8 8 8 8 2 354 355 357 1 352 358 1 17 19 33 28 27 31 48 57 66 65 58 52 50 51 55 58 57 52 42 40 47 47 40 4 355 10
214 170 157 197 298 291 237 248 297 10 321 181 238 232 182 353 309 312 347 341 114 162 108 354 347 77 39 343 307 302 301 326 27 42 47 42 37 31 18 19 29 27 21 23 25 20 14 17 18 20 19 13 2 355 1 14 14 20 19 26 42 45 59 60 64 65 57 46 46 48 49 49 46 43 39 33 34 53 97 198 204 181 126 47 356
266 226 224 202 201 241 286 291 165 137 237 211 246 235 168 190 283 346 346 314 358 326 126 171 186 111 120 222 266 268 275 45 43 46 46 43 38 38 29 30 29 25 23 22 24 20 17 23 27 30 22 17 10 356 359 22 33 39 44 44 45 63 72 71 70 69 75 79 71 64 57 57 60 58 55 35 41 31 12 1 342 323 131 144 94
229 240 241 269 287 303 321 305 309 260 276 297 207 152 230 304 40 245 245 72 355 42 75 183 242 130 128 164 335 317 42 68 63 54 52 43 41 38 36 28 20 13 21 20 19 15 11 21 26 26 18 15 13 7 1 11 20 46 59 59 63 67 71 73 79 83 86 85 81 89 105 118 116 114 125 149 137 146 111 80 56 48 50 46 59
227 248 241 256 288 282 251 299 327 312 72 58 33 14 341 257 216 274 311 34 75 115 146 68 68 36 106 160 148 49 61 56 61 54 52 49 52 50 46 39 33 31 30 35 28 25 22 22 22 19 16 21 17 23 20 19 17 13 36 56 57 42 45 41 48 49 50 56 68 74 76 76 74 69 64 53 54 56 50 42 42 50 52 58 58
247 247 257 255 254 278 300 284 276 220 121 159 224 205 186 238 253 302 307 312 123 138 69 45 54 69 67 64 64 64 67 71 78 74 60 60 63 67 60 56 53 50 49 49 43 27 29 27 28 27 29 32 30 38 42 47 43 46 42 41 59 64 60 61 62 51 33 39 49 49 40 43 43 55 64 62 46 39 42 43 49 39 38 30 34
245 305 284 279 281 294 297 331 310 271 272 306 288 244 193 211 181 263 308 5 358 146 120 101 79 76 67 66 75 78 75 79 84 80 74 68 72 69 65 57 56 53 49 47 60 55 41 14 34 30 27 42 33 30 48 56 57 53 52 55 43 50 66 71 71 61 49 44 54 55 51 39 43 37 338 329 40 44 54 41 39 33 60 53 39
17 305 261 265 301 302 304 325 315 351 315 330 333 303 305 204 162 275 325 34 251 175 174 131 123 105 98 95 82 82 94 100 97 95 80 71 62 61 56 44 23 57 61 57 34 41 61 42 26 41 40 11 21 21 24 36 35 49 53 46 42 23 16 355 18 33 29 18 14 33 18 30 34 37 17 3 44 68 81 71 52 52 40 54 51
193 218 257 282 288 285 286 295 160 193 258 89 3 331 322 269 241 255 209 170 184 171 137 145 132 116 119 113 113 104 103 104 106 97 102 91 78 67 43 23 1 22 64 58 54 37 29 39 19 20 26 43 18 30 14 17 31 27 37 49 36 10 352 340 346 64 40 36 41 27 17 21 31 29 41 39 40 39 39 40 33 35 30 42 51
257 249 273 267 266 274 285 278 269 243 278 99 116 193 196 210 214 213 205 208 196 171 180 156 161 137 124 114 126 126 99 86 83 98 84 69 60 65 66 40 19 15 33 46 53 47 48 56 25 31 20 29 37 32 49 28 27 43 36 39 12 358 355 354 355 11 339 311 80 76 73 57 59 49 39 27 38 41 51 45 42 37 39 37 27
240 228 232 239 250 267 279 292 288 272 119 107 137 196 200 224 215 205 208 220 207 175 148 155 159 162 143 134 129 92 98 104 118 104 58 46 76 77 69 68 42 31 38 36 38 45 33 55 64 46 45 32 36 42 47 46 40 32 29 17 3 0 358 347 356 1 334 341 1 51 29 24 12 38 39 23 19 35 16 22 10 16 30 34 46
273 272 227 225 242 247 270 273 255 272 157 138 176 193 192 221 207 198 193 204 207 170 164 174 162 139 144 131 119 149 150 159 131 135 128 115 107 89 64 59 43 54 86 46 27 52 60 35 43 46 60 52 39 50 59 51 43 39 20 17 14 10 5 6 356 347 345 345 338 41 40 40 18 12 7 9 338 54 60 343 360 355 4 11 23